| time (UTC) | temp C | wind direction | speed KPH | gust KPH | rain 1hr cm | rain 24hr cm | rain mn cm | humidity % | barometer mb |
| 20260903235557 | 22 | 177 | 1.6 | 6.4 | 0.00 | 0.00 | 0.00 | 90 | 1018.8 |
| 20260903234554 | 22 | 221 | 3.2 | 6.4 | 0.00 | 0.00 | 0.00 | 90 | 1018.8 |
| 20260903233551 | 22 | 188 | 1.6 | 6.4 | 0.00 | 0.00 | 0.00 | 90 | 1018.8 |
| 20260903232549 | 22 | 164 | 3.2 | 6.4 | 0.00 | 0.00 | 0.00 | 91 | 1018.8 |
| 20260903231546 | 23 | 164 | 3.2 | 6.4 | 0.00 | 0.00 | 0.00 | 90 | 1018.9 |
| 20260903230543 | 23 | 191 | 4.8 | 9.7 | 0.00 | 0.00 | 0.00 | 90 | 1018.9 |
| 20260903225541 | 23 | 193 | 4.8 | 9.7 | 0.00 | 0.00 | 0.00 | 89 | 1019.0 |
| 20260903224539 | 23 | 213 | 3.2 | 6.4 | 0.00 | 0.00 | 0.00 | 89 | 1018.9 |
| 20260903223536 | 23 | 203 | 4.8 | 9.7 | 0.00 | 0.00 | 0.00 | 89 | 1019.0 |
| 20260903222533 | 23 | 199 | 3.2 | 9.7 | 0.00 | 0.00 | 0.00 | 89 | 1018.9 |
| 20260903221531 | 23 | 207 | 4.8 | 11.3 | 0.00 | 0.00 | 0.00 | 88 | 1018.9 |
| 20260903220528 | 23 | 206 | 4.8 | 9.7 | 0.00 | 0.00 | 0.00 | 88 | 1019.0 |
| 20260903215525 | 23 | 201 | 6.4 | 9.7 | 0.00 | 0.00 | 0.00 | 88 | 1019.2 |
| 20260903214523 | 23 | 159 | 4.8 | 9.7 | 0.00 | 0.00 | 0.00 | 87 | 1019.0 |
| 20260903213520 | 23 | 192 | 9.7 | 12.9 | 0.00 | 0.00 | 0.00 | 85 | 1019.1 |
| 20260903212517 | 23 | 153 | 4.8 | 9.7 | 0.00 | 0.00 | 0.00 | 83 | 1019.1 |
| 20260903211515 | 23 | 162 | 4.8 | 9.7 | 0.00 | 0.00 | 0.00 | 82 | 1019.0 |
| 20260903210613 | 23 | 181 | 8.0 | 14.5 | 0.00 | 0.00 | 0.00 | 82 | 1019.0 |
| 20260903205610 | 24 | 189 | 6.4 | 9.7 | 0.00 | 0.00 | 0.00 | 80 | 1019.2 |
| 20260903204608 | 24 | 206 | 4.8 | 9.7 | 0.00 | 0.00 | 0.00 | 80 | 1019.2 |
| 20260903203605 | 24 | 202 | 6.4 | 9.7 | 0.00 | 0.00 | 0.00 | 79 | 1019.3 |
| 20260903202602 | 24 | 170 | 3.2 | 6.4 | 0.00 | 0.00 | 0.00 | 79 | 1019.3 |
| 20260903201600 | 25 | 177 | 1.6 | 6.4 | 0.00 | 0.00 | 0.00 | 79 | 1019.3 |
| 20260903200557 | 25 | 183 | 3.2 | 6.4 | 0.00 | 0.00 | 0.00 | 79 | 1019.2 |
| 20260903195554 | 25 | 176 | 3.2 | 6.4 | 0.00 | 0.00 | 0.00 | 77 | 1019.1 |
| 20260903194552 | 25 | 172 | 4.8 | 6.4 | 0.00 | 0.00 | 0.00 | 77 | 1019.0 |
| 20260903193549 | 25 | 173 | 4.8 | 9.7 | 0.00 | 0.00 | 0.00 | 77 | 1019.0 |
| 20260903192547 | 25 | 180 | 6.4 | 11.3 | 0.00 | 0.00 | 0.00 | 75 | 1018.8 |
| 20260903191544 | 25 | 171 | 4.8 | 9.7 | 0.00 | 0.00 | 0.00 | 74 | 1018.8 |
| 20260903190541 | 25 | 177 | 3.2 | 6.4 | 0.00 | 0.00 | 0.00 | 74 | 1018.6 |
| 20260903185539 | 25 | 149 | 4.8 | 9.7 | 0.00 | 0.00 | 0.00 | 73 | 1018.4 |
| 20260903184536 | 26 | 118 | 3.2 | 6.4 | 0.00 | 0.00 | 0.00 | 73 | 1018.4 |
| 20260903183534 | 26 | 135 | 3.2 | 11.3 | 0.00 | 0.00 | 0.00 | 72 | 1018.3 |
| 20260903182531 | 26 | 101 | 3.2 | 11.3 | 0.00 | 0.00 | 0.00 | 72 | 1018.3 |
| 20260903181528 | 26 | 126 | 4.8 | 11.3 | 0.00 | 0.00 | 0.00 | 72 | 1018.2 |
| 20260903180526 | 26 | 138 | 8.0 | 12.9 | 0.00 | 0.00 | 0.00 | 71 | 1018.2 |
| 20260903175523 | 27 | 156 | 4.8 | 12.9 | 0.00 | 0.00 | 0.00 | 70 | 1018.0 |
| 20260903174521 | 27 | 118 | 6.4 | 12.9 | 0.00 | 0.00 | 0.00 | 70 | 1018.1 |
| 20260903173518 | 27 | 119 | 9.7 | 17.7 | 0.00 | 0.00 | 0.00 | 69 | 1018.0 |
| 20260903172515 | 27 | 124 | 8.0 | 17.7 | 0.00 | 0.00 | 0.00 | 68 | 1017.9 |
| 20260903171613 | 27 | 218 | 6.4 | 20.9 | 0.00 | 0.00 | 0.00 | 67 | 1017.9 |
| 20260903170610 | 28 | 127 | 8.0 | 20.9 | 0.00 | 0.00 | 0.00 | 67 | 1017.8 |
| 20260903165608 | 28 | 178 | 11.3 | 22.5 | 0.00 | 0.00 | 0.00 | 66 | 1017.8 |
| 20260903164605 | 28 | 160 | 11.3 | 20.9 | 0.00 | 0.00 | 0.00 | 65 | 1017.9 |
| 20260903163603 | 28 | 178 | 9.7 | 20.9 | 0.00 | 0.00 | 0.00 | 64 | 1017.9 |
| 20260903162600 | 29 | 162 | 9.7 | 20.9 | 0.00 | 0.00 | 0.00 | 64 | 1017.8 |
| 20260903161558 | 29 | 151 | 12.9 | 17.7 | 0.00 | 0.00 | 0.00 | 62 | 1017.8 |
| 20260903160555 | 30 | 101 | 8.0 | 17.7 | 0.00 | 0.00 | 0.00 | 59 | 1017.8 |
| 20260903155552 | 30 | 142 | 8.0 | 17.7 | 0.00 | 0.00 | 0.00 | 58 | 1017.8 |
| 20260903154550 | 30 | 123 | 9.7 | 20.9 | 0.00 | 0.00 | 0.00 | 56 | 1017.9 |
| 20260903153547 | 31 | 124 | 6.4 | 14.5 | 0.00 | 0.00 | 0.00 | 53 | 1017.8 |
| 20260903152544 | 31 | 120 | 6.4 | 17.7 | 0.00 | 0.00 | 0.00 | 52 | 1017.9 |
| 20260903151542 | 32 | 138 | 9.7 | 20.9 | 0.00 | 0.00 | 0.00 | 49 | 1017.8 |
| 20260903150539 | 32 | 129 | 8.0 | 17.7 | 0.00 | 0.00 | 0.00 | 49 | 1017.8 |
| 20260903145537 | 32 | 205 | 4.8 | 12.9 | 0.00 | 0.00 | 0.00 | 50 | 1017.9 |
| 20260903144534 | 32 | 99 | 4.8 | 12.9 | 0.00 | 0.00 | 0.00 | 49 | 1017.9 |
| 20260903143531 | 31 | 146 | 6.4 | 17.7 | 0.00 | 0.00 | 0.00 | 49 | 1017.9 |
| 20260903142529 | 32 | 84 | 6.4 | 12.9 | 0.00 | 0.00 | 0.00 | 49 | 1017.8 |
| 20260903141526 | 32 | 85 | 4.8 | 12.9 | 0.00 | 0.00 | 0.00 | 50 | 1018.0 |
| 20260903140524 | 31 | 188 | 6.4 | 17.7 | 0.00 | 0.00 | 0.00 | 51 | 1018.0 |
| 20260903135521 | 31 | 115 | 8.0 | 17.7 | 0.00 | 0.00 | 0.00 | 51 | 1018.1 |
| 20260903134519 | 32 | 94 | 6.4 | 12.9 | 0.00 | 0.00 | 0.00 | 50 | 1018.0 |
| 20260903133516 | 32 | 112 | 4.8 | 14.5 | 0.00 | 0.00 | 0.00 | 50 | 1018.3 |
| 20260903132613 | 32 | 186 | 4.8 | 17.7 | 0.00 | 0.00 | 0.00 | 49 | 1018.3 |
| 20260903131611 | 31 | 96 | 4.8 | 17.7 | 0.00 | 0.00 | 0.00 | 49 | 1018.3 |
| 20260903130609 | 32 | 128 | 4.8 | 12.9 | 0.00 | 0.00 | 0.00 | 49 | 1018.3 |
| 20260903125605 | 32 | 82 | 3.2 | 11.3 | 0.00 | 0.00 | 0.00 | 47 | 1018.5 |
| 20260903124602 | 32 | 102 | 3.2 | 9.7 | 0.00 | 0.00 | 0.00 | 45 | 1018.4 |
| 20260903123600 | 31 | 75 | 6.4 | 12.9 | 0.00 | 0.00 | 0.00 | 46 | 1018.4 |
| 20260903122557 | 31 | 43 | 6.4 | 14.5 | 0.00 | 0.00 | 0.00 | 44 | 1018.5 |
| 20260903121555 | 32 | 66 | 4.8 | 11.3 | 0.00 | 0.00 | 0.00 | 44 | 1018.4 |
| 20260903120552 | 32 | 90 | 3.2 | 9.7 | 0.00 | 0.00 | 0.00 | 43 | 1018.4 |
| 20260903115550 | 31 | 23 | 6.4 | 17.7 | 0.00 | 0.00 | 0.00 | 44 | 1018.6 |
| 20260903114547 | 32 | 103 | 6.4 | 17.7 | 0.00 | 0.00 | 0.00 | 43 | 1018.5 |
| 20260903113544 | 32 | 240 | 3.2 | 6.4 | 0.00 | 0.00 | 0.00 | 42 | 1018.7 |
| 20260903112542 | 31 | 53 | 3.2 | 11.3 | 0.00 | 0.00 | 0.00 | 41 | 1018.8 |
| 20260903111539 | 31 | 105 | 6.4 | 17.7 | 0.00 | 0.00 | 0.00 | 42 | 1019.0 |
| 20260903110537 | 31 | 105 | 4.8 | 12.9 | 0.00 | 0.00 | 0.00 | 41 | 1019.0 |
| 20260903105534 | 31 | 355 | 4.8 | 14.5 | 0.00 | 0.00 | 0.00 | 40 | 1019.1 |
| 20260903104531 | 31 | 14 | 3.2 | 12.9 | 0.00 | 0.00 | 0.00 | 41 | 1019.2 |
| 20260903103529 | 31 | 107 | 1.6 | 6.4 | 0.00 | 0.00 | 0.00 | 42 | 1019.3 |
| 20260903102526 | 30 | 112 | 3.2 | 6.4 | 0.00 | 0.00 | 0.00 | 43 | 1019.4 |
| 20260903101524 | 30 | 130 | 4.8 | 9.7 | 0.00 | 0.00 | 0.00 | 43 | 1019.6 |
| 20260903100521 | 30 | 110 | 6.4 | 11.3 | 0.00 | 0.00 | 0.00 | 43 | 1019.5 |
| 20260903095518 | 30 | 69 | 3.2 | 9.7 | 0.00 | 0.00 | 0.00 | 40 | 1019.5 |
| 20260903094516 | 30 | 353 | 3.2 | 9.7 | 0.00 | 0.00 | 0.00 | 42 | 1019.6 |
| 20260903093613 | 29 | 116 | 4.8 | 9.7 | 0.00 | 0.00 | 0.00 | 44 | 1019.7 |
| 20260903092611 | 30 | 97 | 3.2 | 9.7 | 0.00 | 0.00 | 0.00 | 44 | 1019.7 |
| 20260903091608 | 29 | 113 | 1.6 | 6.4 | 0.00 | 0.00 | 0.00 | 46 | 1019.6 |
| 20260903090606 | 29 | 14 | 1.6 | 6.4 | 0.00 | 0.00 | 0.00 | 47 | 1019.5 |
| 20260903085603 | 28 | 110 | 3.2 | 9.7 | 0.00 | 0.00 | 0.00 | 47 | 1019.4 |
| 20260903084601 | 28 | 96 | 3.2 | 6.4 | 0.00 | 0.00 | 0.00 | 51 | 1019.4 |
| 20260903083558 | 28 | 45 | 3.2 | 6.4 | 0.00 | 0.00 | 0.00 | 51 | 1019.3 |
| 20260903082555 | 28 | 126 | 1.6 | 6.4 | 0.00 | 0.00 | 0.00 | 50 | 1019.1 |
| 20260903081553 | 27 | 113 | 1.6 | 6.4 | 0.00 | 0.00 | 0.00 | 52 | 1019.2 |
| 20260903080550 | 27 | 114 | 3.2 | 6.4 | 0.00 | 0.00 | 0.00 | 53 | 1019.1 |
| 20260903075548 | 27 | 130 | 0.0 | 3.2 | 0.00 | 0.00 | 0.00 | 53 | 1019.2 |
| 20260903074545 | 27 | 0.0 | 3.2 | 0.00 | 0.00 | 0.00 | 52 | 1019.1 | |
| 20260903073542 | 26 | 113 | 1.6 | 3.2 | 0.00 | 0.00 | 0.00 | 53 | 1019.1 |
| 20260903072540 | 26 | 113 | 1.6 | 3.2 | 0.00 | 0.00 | 0.00 | 54 | 1019.2 |
| 20260903071537 | 25 | 123 | 1.6 | 3.2 | 0.00 | 0.00 | 0.00 | 55 | 1019.1 |
| 20260903070535 | 25 | 99 | 1.6 | 3.2 | 0.00 | 0.00 | 0.00 | 55 | 1019.0 |
| 20260903065532 | 26 | 106 | 0.0 | 3.2 | 0.00 | 0.00 | 0.00 | 53 | 1019.0 |
| 20260903064559 | 26 | 0.0 | 0.0 | 0.00 | 0.00 | 0.00 | 54 | 1018.9 | |
| 20260903063557 | 25 | 0.0 | 3.2 | 0.00 | 0.00 | 0.00 | 55 | 1018.8 | |
| 20260903062554 | 25 | 0.0 | 0.0 | 0.00 | 0.00 | 0.00 | 57 | 1018.7 | |
| 20260903061552 | 24 | 0.0 | 0.0 | 0.00 | 0.00 | 0.00 | 58 | 1018.5 | |
| 20260903060549 | 23 | 225 | 0.0 | 3.2 | 0.00 | 0.00 | 0.00 | 60 | 1018.5 |
| 20260903055546 | 22 | 0.0 | 3.2 | 0.00 | 0.00 | 0.00 | 62 | 1018.4 | |
| 20260903054544 | 22 | 248 | 1.6 | 3.2 | 0.00 | 0.00 | 0.00 | 63 | 1018.4 |
| 20260903053541 | 22 | 234 | 1.6 | 3.2 | 0.00 | 0.00 | 0.00 | 64 | 1018.3 |
| 20260903052538 | 22 | 0.0 | 0.0 | 0.00 | 0.00 | 0.00 | 64 | 1018.2 | |
| 20260903051536 | 22 | 277 | 3.2 | 6.4 | 0.00 | 0.00 | 0.00 | 64 | 1018.1 |
| 20260903050533 | 22 | 225 | 0.0 | 3.2 | 0.00 | 0.00 | 0.00 | 65 | 1018.1 |
| 20260903045531 | 22 | 218 | 0.0 | 3.2 | 0.00 | 0.00 | 0.00 | 64 | 1018.1 |
| 20260903044528 | 22 | 0.0 | 0.0 | 0.00 | 0.00 | 0.00 | 64 | 1018.0 | |
| 20260903043526 | 22 | 0.0 | 3.2 | 0.00 | 0.00 | 0.00 | 63 | 1018.1 | |
| 20260903042523 | 22 | 225 | 3.2 | 6.4 | 0.00 | 0.00 | 0.00 | 63 | 1018.0 |
| 20260903041520 | 22 | 225 | 0.0 | 3.2 | 0.00 | 0.00 | 0.00 | 63 | 1018.0 |
| 20260903040518 | 22 | 254 | 3.2 | 6.4 | 0.00 | 0.00 | 0.00 | 63 | 1018.1 |
| 20260903035515 | 22 | 225 | 0.0 | 3.2 | 0.00 | 0.00 | 0.00 | 64 | 1018.2 |
| 20260903034613 | 22 | 0.0 | 0.0 | 0.00 | 0.00 | 0.00 | 65 | 1018.3 | |
| 20260903033610 | 22 | 0.0 | 0.0 | 0.00 | 0.00 | 0.00 | 64 | 1018.3 | |
| 20260903032608 | 22 | 0.0 | 0.0 | 0.00 | 0.00 | 0.00 | 64 | 1018.4 | |
| 20260903031605 | 22 | 242 | 1.6 | 3.2 | 0.00 | 0.00 | 0.00 | 63 | 1018.3 |
| 20260903030602 | 23 | 229 | 1.6 | 3.2 | 0.00 | 0.00 | 0.00 | 62 | 1018.5 |
| 20260903025600 | 23 | 246 | 3.2 | 6.4 | 0.00 | 0.00 | 0.00 | 60 | 1018.5 |
| 20260903024557 | 23 | 243 | 3.2 | 3.2 | 0.00 | 0.00 | 0.00 | 61 | 1018.6 |
| 20260903023554 | 23 | 261 | 3.2 | 6.4 | 0.00 | 0.00 | 0.00 | 62 | 1018.4 |
| 20260903022552 | 22 | 248 | 1.6 | 3.2 | 0.00 | 0.00 | 0.00 | 64 | 1018.5 |
| 20260903021549 | 22 | 248 | 3.2 | 3.2 | 0.00 | 0.00 | 0.00 | 64 | 1018.6 |
| 20260903020547 | 22 | 229 | 1.6 | 3.2 | 0.00 | 0.00 | 0.00 | 65 | 1018.6 |
| 20260903015544 | 22 | 180 | 0.0 | 3.2 | 0.00 | 0.00 | 0.00 | 65 | 1018.5 |
| 20260903014542 | 22 | 0.0 | 0.0 | 0.00 | 0.00 | 0.00 | 63 | 1018.5 | |
| 20260903013539 | 23 | 270 | 1.6 | 3.2 | 0.00 | 0.00 | 0.00 | 61 | 1018.6 |
| 20260903012536 | 23 | 0.0 | 0.0 | 0.00 | 0.00 | 0.00 | 62 | 1018.5 | |
| 20260903011534 | 23 | 270 | 1.6 | 3.2 | 0.00 | 0.00 | 0.00 | 62 | 1018.7 |
| 20260903010531 | 23 | 248 | 1.6 | 3.2 | 0.00 | 0.00 | 0.00 | 63 | 1018.6 |
| 20260903005529 | 22 | 241 | 3.2 | 6.4 | 0.00 | 0.00 | 0.00 | 63 | 1018.8 |
| 20260903004526 | 22 | 225 | 1.6 | 3.2 | 0.00 | 0.00 | 0.00 | 63 | 1018.8 |
| 20260903003523 | 22 | 240 | 1.6 | 3.2 | 0.00 | 0.00 | 0.00 | 63 | 1018.8 |
| 20260903002521 | 22 | 245 | 3.2 | 6.4 | 0.00 | 0.00 | 0.00 | 63 | 1018.9 |
| 20260903001518 | 22 | 248 | 1.6 | 3.2 | 0.00 | 0.00 | 0.00 | 63 | 1018.9 |
| 20260903000516 | 22 | 203 | 1.6 | 3.2 | 0.00 | 0.00 | 0.00 | 63 | 1019.2 |